Orbital Elements at Epoch 2459000.5 (2020-May-31.0) TDB
Reference: JPL 19 (heliocentric ecliptic J2000)
Element | Value | Uncertainty (1-sigma) | Units |
e | .2596066582691786 | 3.2841e-08 | |
a | 2.289617886259861 | 8.3701e-09 | au |
q | 1.695217838094598 | 7.7817e-08 | au |
i | 6.263471919555921 | 4.7007e-06 | deg |
node | 291.846537212948 | 4e-05 | deg |
peri | 108.5439909397204 | 4.193e-05 | deg |
M | 292.6926053465605 | 1.0569e-05 | deg |
tp | 2459237.093723857168 (2021-Jan-22.59372386) | 3.7493e-05 | TDB |
period | 1265.444027764458 3.46 | 6.9391e-06 1.9e-08 | d yr |
n | .2844851230883585 | 1.56e-09 | deg/d |
Q | 2.884017934425124 | 1.0543e-08 | au |
|
| | Orbit Determination Parameters
Additional Information
|